Time,TemperatureF,DewpointF,PressureIn,WindDirection,WindDirectionDegrees,WindSpeedMPH,WindSpeedGustMPH,Humidity,HourlyPrecipIn,Conditions,Clouds,dailyrainin,SolarRadiationWatts/m^2,SoftwareType,DateUTC
2013-01-14 00:02:00,0.0,-5.0,-100.00,NNE,31,1.0,4.0,77,0.00,,,0.13,0.000000,,2013-01-14 07:02:00,
2013-01-14 00:12:00,0.0,-5.0,-100.00,NNE,31,1.0,4.0,77,0.00,,,0.13,0.000000,,2013-01-14 07:12:00,
2013-01-14 00:33:00,-2.0,-7.0,-100.00,SSE,162,1.0,4.0,77,0.00,,,0.13,0.000000,,2013-01-14 07:33:00,
2013-01-14 00:43:00,-2.0,-7.0,-100.00,SSE,162,1.0,4.0,77,0.00,,,0.13,0.000000,,2013-01-14 07:43:00,
2013-01-14 00:52:00,-2.0,-7.0,-100.00,SSE,162,1.0,4.0,77,0.00,,,0.13,0.000000,,2013-01-14 07:52:00,
2013-01-14 01:02:00,-2.0,-7.0,-100.00,SSE,162,1.0,4.0,77,0.00,,,0.13,0.000000,,2013-01-14 08:02:00,
2013-01-14 01:11:00,-2.0,-7.0,-100.00,SSE,162,1.0,4.0,77,0.00,,,0.13,0.000000,,2013-01-14 08:11:00,
2013-01-14 01:43:00,-3.0,-9.0,-100.00,NNE,20,2.0,4.0,76,0.00,,,0.13,0.000000,,2013-01-14 08:43:00,
2013-01-14 01:53:00,-3.0,-9.0,-100.00,NNE,20,2.0,4.0,76,0.00,,,0.13,0.000000,,2013-01-14 08:53:00,
2013-01-14 02:02:00,-3.0,-9.0,-100.00,NNE,20,2.0,4.0,76,0.00,,,0.13,0.000000,,2013-01-14 09:02:00,
2013-01-14 02:11:00,-3.0,-9.0,-100.00,NNE,20,2.0,4.0,76,0.00,,,0.13,0.000000,,2013-01-14 09:11:00,
2013-01-14 02:34:00,-5.0,-11.0,-100.00,NNE,17,2.0,4.0,75,0.00,,,0.13,0.000000,,2013-01-14 09:34:00,
2013-01-14 02:43:00,-5.0,-11.0,-100.00,NNE,17,2.0,4.0,75,0.00,,,0.13,0.000000,,2013-01-14 09:43:00,
2013-01-14 02:53:00,-5.0,-11.0,-100.00,NNE,17,2.0,4.0,75,0.00,,,0.13,0.000000,,2013-01-14 09:53:00,
2013-01-14 03:02:00,-5.0,-11.0,-100.00,NNE,17,2.0,4.0,75,0.00,,,0.13,0.000000,,2013-01-14 10:02:00,
2013-01-14 03:11:00,-5.0,-11.0,-100.00,NNE,17,2.0,4.0,75,0.00,,,0.13,0.000000,,2013-01-14 10:11:00,
2013-01-14 03:43:00,-3.0,-8.0,-100.00,NE,53,1.0,3.0,77,0.00,,,0.13,0.000000,,2013-01-14 10:43:00,
2013-01-14 03:53:00,-3.0,-8.0,-100.00,NE,53,1.0,3.0,77,0.00,,,0.13,0.000000,,2013-01-14 10:53:00,
2013-01-14 04:02:00,-3.0,-8.0,-100.00,NE,53,1.0,3.0,77,0.00,,,0.13,0.000000,,2013-01-14 11:02:00,
2013-01-14 04:11:00,-3.0,-8.0,-100.00,NE,53,1.0,3.0,77,0.00,,,0.13,0.000000,,2013-01-14 11:11:00,
2013-01-14 04:43:00,-2.0,-8.0,-100.00,ESE,104,1.0,3.0,76,0.00,,,0.13,0.000000,,2013-01-14 11:43:00,
2013-01-14 04:53:00,-2.0,-8.0,-100.00,ESE,104,1.0,3.0,76,0.00,,,0.13,0.000000,,2013-01-14 11:53:00,
2013-01-14 05:02:00,-2.0,-8.0,-100.00,ESE,104,1.0,3.0,76,0.00,,,0.13,0.000000,,2013-01-14 12:02:00,
2013-01-14 05:12:00,-2.0,-8.0,-100.00,ESE,104,1.0,3.0,76,0.00,,,0.13,0.000000,,2013-01-14 12:12:00,
2013-01-14 05:33:00,-3.0,-9.0,-100.00,NNE,25,2.0,3.0,76,0.00,,,0.13,0.000000,,2013-01-14 12:33:00,
2013-01-14 05:43:00,-3.0,-9.0,-100.00,NNE,25,2.0,3.0,76,0.00,,,0.13,0.000000,,2013-01-14 12:43:00,
2013-01-14 05:53:00,-3.0,-9.0,-100.00,NNE,25,2.0,3.0,76,0.00,,,0.13,0.000000,,2013-01-14 12:53:00,
2013-01-14 06:03:00,-3.0,-9.0,-100.00,NNE,25,2.0,3.0,76,0.00,,,0.13,0.000000,,2013-01-14 13:03:00,
2013-01-14 06:12:00,-3.0,-9.0,-100.00,NNE,25,2.0,3.0,76,0.00,,,0.13,0.000000,,2013-01-14 13:12:00,
2013-01-14 06:43:00,1.0,-4.0,-100.00,SE,134,5.0,6.0,77,0.00,,,0.13,0.000000,,2013-01-14 13:43:00,
2013-01-14 06:53:00,1.0,-4.0,-100.00,SE,134,5.0,6.0,77,0.00,,,0.13,0.000000,,2013-01-14 13:53:00,
2013-01-14 07:33:00,4.0,-3.0,-100.00,SE,141,4.0,7.0,73,0.00,,,0.13,0.000000,,2013-01-14 14:33:00,
2013-01-14 08:33:00,6.0,-4.0,-100.00,SE,128,7.0,10.0,64,0.00,,,0.13,0.000000,,2013-01-14 15:33:00,
2013-01-14 09:33:00,8.0,-2.0,-100.00,ESE,118,7.0,10.0,62,0.00,,,0.13,5.000000,,2013-01-14 16:33:00,
2013-01-14 10:43:00,9.0,0.0,-100.00,SSE,150,5.0,10.0,67,0.00,,,0.13,18.000000,,2013-01-14 17:43:00,
2013-01-14 10:53:00,9.0,0.0,-100.00,SSE,150,5.0,10.0,67,0.00,,,0.13,18.000000,,2013-01-14 17:53:00,
2013-01-14 11:03:00,9.0,0.0,-100.00,SSE,150,5.0,10.0,67,0.00,,,0.13,18.000000,,2013-01-14 18:03:00,
2013-01-14 11:12:00,9.0,0.0,-100.00,SSE,150,5.0,10.0,67,0.00,,,0.13,18.000000,,2013-01-14 18:12:00,
2013-01-14 11:43:00,11.0,3.0,-100.00,SSE,163,8.0,14.0,68,0.00,,,0.13,36.000000,,2013-01-14 18:43:00,
2013-01-14 11:53:00,11.0,3.0,-100.00,SSE,163,8.0,14.0,68,0.00,,,0.13,36.000000,,2013-01-14 18:53:00,
2013-01-14 12:03:00,11.0,3.0,-100.00,SSE,163,8.0,14.0,68,0.00,,,0.13,36.000000,,2013-01-14 19:03:00,
2013-01-14 12:12:00,11.0,3.0,-100.00,SSE,163,8.0,14.0,68,0.00,,,0.13,36.000000,,2013-01-14 19:12:00,
2013-01-14 12:43:00,13.0,4.0,-100.00,SSE,164,11.0,15.0,67,0.00,,,0.10,56.000000,,2013-01-14 19:43:00,
2013-01-14 12:53:00,13.0,4.0,-100.00,SSE,164,11.0,15.0,67,0.00,,,0.10,56.000000,,2013-01-14 19:53:00,
2013-01-14 13:03:00,13.0,4.0,-100.00,SSE,164,11.0,15.0,67,0.00,,,0.10,56.000000,,2013-01-14 20:03:00,
2013-01-14 13:12:00,13.0,4.0,-100.00,SSE,164,11.0,15.0,67,0.00,,,0.10,56.000000,,2013-01-14 20:12:00,
2013-01-14 13:33:00,15.0,4.0,-100.00,SSE,163,10.0,15.0,62,0.00,,,0.07,69.000000,,2013-01-14 20:33:00,
2013-01-14 13:43:00,15.0,4.0,-100.00,SSE,163,10.0,15.0,62,0.00,,,0.07,69.000000,,2013-01-14 20:43:00,
2013-01-14 13:53:00,15.0,4.0,-100.00,SSE,163,10.0,15.0,62,0.00,,,0.07,69.000000,,2013-01-14 20:53:00,
2013-01-14 14:02:00,15.0,4.0,-100.00,SSE,163,10.0,15.0,62,0.00,,,0.07,69.000000,,2013-01-14 21:02:00,
2013-01-14 14:12:00,15.0,4.0,-100.00,SSE,163,10.0,15.0,62,0.00,,,0.07,69.000000,,2013-01-14 21:12:00,
2013-01-14 14:43:00,17.0,6.0,-100.00,SSE,150,6.0,13.0,60,0.00,,,0.05,44.000000,,2013-01-14 21:43:00,
2013-01-14 14:53:00,17.0,6.0,-100.00,SSE,150,6.0,13.0,60,0.00,,,0.05,44.000000,,2013-01-14 21:53:00,
2013-01-14 15:02:00,17.0,6.0,-100.00,SSE,150,6.0,13.0,60,0.00,,,0.05,44.000000,,2013-01-14 22:02:00,
2013-01-14 15:12:00,17.0,6.0,-100.00,SSE,150,6.0,13.0,60,0.00,,,0.05,44.000000,,2013-01-14 22:12:00,
2013-01-14 15:43:00,17.0,8.0,-100.00,SSE,158,7.0,11.0,67,0.00,,,-99.99,29.000000,,2013-01-14 22:43:00,
2013-01-14 15:52:00,17.0,8.0,-100.00,SSE,158,7.0,11.0,67,0.00,,,-99.99,29.000000,,2013-01-14 22:52:00,
2013-01-14 16:02:00,17.0,8.0,-100.00,SSE,158,7.0,11.0,67,0.00,,,-99.99,29.000000,,2013-01-14 23:02:00,
2013-01-14 16:12:00,17.0,8.0,-100.00,SSE,158,7.0,11.0,67,0.00,,,-99.99,29.000000,,2013-01-14 23:12:00,
2013-01-14 16:33:00,17.0,10.0,-100.00,SSE,159,8.0,13.0,75,0.00,,,0.00,18.000000,,2013-01-14 23:33:00,
2013-01-14 16:43:00,17.0,10.0,-100.00,SSE,159,8.0,13.0,75,0.00,,,0.00,18.000000,,2013-01-14 23:43:00,
2013-01-14 16:53:00,17.0,10.0,-100.00,SSE,159,8.0,13.0,75,0.00,,,0.00,18.000000,,2013-01-14 23:53:00,
2013-01-14 17:02:00,17.0,10.0,-100.00,SSE,159,8.0,13.0,75,0.00,,,0.00,18.000000,,2013-01-15 00:02:00,
2013-01-14 17:12:00,17.0,10.0,-100.00,SSE,159,8.0,13.0,75,0.00,,,0.00,18.000000,,2013-01-15 00:12:00,
2013-01-14 17:43:00,17.0,11.0,-100.00,SE,133,7.0,11.0,76,0.00,,,0.00,6.000000,,2013-01-15 00:43:00,
2013-01-14 17:53:00,17.0,11.0,-100.00,SE,133,7.0,11.0,76,0.00,,,0.00,6.000000,,2013-01-15 00:53:00,
2013-01-14 18:02:00,17.0,11.0,-100.00,SE,133,7.0,11.0,76,0.00,,,0.00,6.000000,,2013-01-15 01:02:00,
2013-01-14 18:12:00,17.0,11.0,-100.00,SE,133,7.0,11.0,76,0.00,,,0.00,6.000000,,2013-01-15 01:12:00,
2013-01-14 18:43:00,17.0,10.0,-100.00,SE,134,6.0,12.0,73,0.00,,,0.00,0.000000,,2013-01-15 01:43:00,
2013-01-14 18:52:00,17.0,10.0,-100.00,SE,134,6.0,12.0,73,0.00,,,0.00,0.000000,,2013-01-15 01:52:00,
2013-01-14 19:02:00,17.0,10.0,-100.00,SE,134,6.0,12.0,73,0.00,,,0.00,0.000000,,2013-01-15 02:02:00,
2013-01-14 19:11:00,17.0,10.0,-100.00,SE,134,6.0,12.0,73,0.00,,,0.00,0.000000,,2013-01-15 02:11:00,
2013-01-14 19:42:00,17.0,9.0,-100.00,SE,125,6.0,9.0,71,0.00,,,0.00,0.000000,,2013-01-15 02:42:00,
2013-01-14 19:53:00,17.0,9.0,-100.00,SE,125,6.0,9.0,71,0.00,,,0.00,0.000000,,2013-01-15 02:53:00,
2013-01-14 20:02:00,17.0,9.0,-100.00,SE,125,6.0,9.0,71,0.00,,,0.00,0.000000,,2013-01-15 03:02:00,
2013-01-14 20:12:00,17.0,9.0,-100.00,SE,125,6.0,9.0,71,0.00,,,0.00,0.000000,,2013-01-15 03:12:00,
2013-01-14 20:33:00,17.0,12.0,-100.00,SE,130,6.0,10.0,80,0.00,,,0.00,0.000000,,2013-01-15 03:33:00,
2013-01-14 20:42:00,17.0,12.0,-100.00,SE,130,6.0,10.0,80,0.00,,,0.00,0.000000,,2013-01-15 03:42:00,
2013-01-14 20:52:00,17.0,12.0,-100.00,SE,130,6.0,10.0,80,0.00,,,0.00,0.000000,,2013-01-15 03:52:00,
2013-01-14 21:02:00,17.0,12.0,-100.00,SE,130,6.0,10.0,80,0.00,,,0.00,0.000000,,2013-01-15 04:02:00,
2013-01-14 21:12:00,17.0,12.0,-100.00,SE,130,6.0,10.0,80,0.00,,,0.00,0.000000,,2013-01-15 04:12:00,
2013-01-14 21:42:00,17.0,12.0,-100.00,SE,132,5.0,8.0,81,0.00,,,0.00,0.000000,,2013-01-15 04:42:00,
2013-01-14 21:52:00,17.0,12.0,-100.00,SE,132,5.0,8.0,81,0.00,,,0.00,0.000000,,2013-01-15 04:52:00,
2013-01-14 22:03:00,17.0,12.0,-100.00,SE,132,5.0,8.0,81,0.00,,,0.00,0.000000,,2013-01-15 05:03:00,
2013-01-14 22:12:00,17.0,12.0,-100.00,SE,132,5.0,8.0,81,0.00,,,0.00,0.000000,,2013-01-15 05:12:00,
2013-01-14 22:33:00,17.0,12.0,-100.00,SE,135,5.0,8.0,79,0.00,,,0.00,0.000000,,2013-01-15 05:33:00,
2013-01-14 22:42:00,17.0,12.0,-100.00,SE,135,5.0,8.0,79,0.00,,,0.00,0.000000,,2013-01-15 05:42:00,
2013-01-14 22:52:00,17.0,12.0,-100.00,SE,135,5.0,8.0,79,0.00,,,0.00,0.000000,,2013-01-15 05:52:00,
2013-01-14 23:02:00,17.0,12.0,-100.00,SE,135,5.0,8.0,79,0.00,,,0.00,0.000000,,2013-01-15 06:02:00,
2013-01-14 23:12:00,17.0,12.0,-100.00,SE,135,5.0,8.0,79,0.00,,,0.00,0.000000,,2013-01-15 06:12:00,
2013-01-14 23:43:00,18.0,12.0,-100.00,ESE,121,5.0,9.0,77,0.00,,,0.00,0.000000,,2013-01-15 06:43:00,
2013-01-14 23:53:00,18.0,12.0,-100.00,ESE,121,5.0,9.0,77,0.00,,,0.00,0.000000,,2013-01-15 06:53:00,